Tracking 33094 objects as of 25-Jan-2026
HD Live streaming from Space Station
objects crossing your sky now

RADUGA 4

Track RADUGA 4 now!
RADUGA 4 is classified as:


NORAD ID: 10987
Int'l Code: 1978-073A
Perigee: 35,743.7 km
Apogee: 35,844.8 km
Inclination: 5.2 °
Period: 1,436.1 minutes
Semi major axis: 42165 km
RCS: 1 m2 (large)
Launch date: July 18, 1978
Source: Commonwealth of Independent States (former USSR) (CIS)
Launch site: TYURATAM MISSILE AND SPACE COMPLEX (TTMTR)
Your satellite tracking list
Your tracking list is empty




NASA's NSSDC Master Catalog

Two Line Element Set (TLE):
1 10987U 78073A   26025.02356111 -.00000334  00000-0  00000-0 0  9995
2 10987   5.1500 280.3050 0011997  28.2923 295.1473  1.00269975118166
Source of the keplerian elements: AFSPC